User: anonymous   Login
Location: Caltech
(34.1382°N, 118.1253°W)
Time: 03:31:16
(UTC-07:00)
Language:

GPS 2-04 Rocket1 - Orbit

View from above orbital plane
View from above orbital plane
View from above satellite
View from above satellite

Ground track
Ground track

The orbit data is extracted from the following two-line orbital elements,

1 20303U 89085B   17147.52591738 +.00002197 +00000-0 +79032-4 0  9992
2 20303 035.6288 168.5701 0106888 348.6222 011.2094 15.23411903497936
Epoch (UTC): 27 May 2017 12:37:19
Eccentricity: 0.0106888
inclination: 35.6288°
perigee height: 422 km
apogee height: 569 km
right ascension of ascending node: 168.5701°
argument of perigee: 348.6222°
revolutions per day: 15.23411903
mean anomaly at epoch: 11.2094°
orbit number at epoch: 49793

The dashed part of the orbit path shows where the satellite is in the earth's shadow,  

DLR